Amsterdam, Netherlands

10:50 PM CET on November 17, 2017 (GMT +0100)
Schiphol

Weather History for EHAM - February, 2013

Change the Weather History Date:

Tuesday, February 19, 2013

  Actual Average Record
Temperature  
Mean Temperature 36 °F -  
Max Temperature 43 °F 46 °F 51 °F (1998)
Min Temperature 28 °F 35 °F 23 °F (2003)
Degree Days  
Heating Degree Days 30    
Moisture  
Dew Point 34 °F    
Average Humidity 87    
Maximum Humidity 100    
Minimum Humidity 69    
Precipitation  
Precipitation 0.01 in - - ()
Sea Level Pressure  
Sea Level Pressure 30.08 in    
Wind  
Wind Speed 6 mph ()    
Max Wind Speed 15 mph    
Max Gust Speed -    
Visibility 4.8 miles    
Events Rain    
Averages and records for this station are not official NWS values.
T = Trace of Precipitation, MM = Missing Value Source: Averaged Metar Reports

Daily Weather History Graph

Daily Weather History Graph

Search for Another Location

Airport or City:

Trip Planner

Search our weather history database for the weather conditions in past years. The results will help you decide how hot, cold, wet, or windy it might be!

Date:

Astronomy

Feb. 19, 2013 Rise Set
Actual Time 7:48 AM CET 6:01 PM CET
Civil Twilight 7:13 AM CET 6:36 PM CET
Nautical Twilight 6:34 AM CET 7:16 PM CET
Astronomical Twilight 5:54 AM CET 7:55 PM CET
Moon 11:56 AM CET (2/19) 3:30 AM CET (2/19)
Length of Visible Light 11h 23m
Length of Day
10h 13m
Waxing Gibbous, 65% of the Moon is Illuminated
Feb 19
Waxing Gibbous
Feb 25
Full
Mar 4
Last Quarter
Mar 11
New
Mar 19
First Quarter

Hourly Weather History & Observations

Time (CET) Temp. Windchill Dew Point Humidity Pressure Visibility Wind Dir Wind Speed Gust Speed Precip Events Conditions
12:25 AM 30.2 °F 25.4 °F 30.2 °F 100% 30.12 in 2.5 mi West 4.6 mph - N/A   Mist
12:55 AM 30.2 °F 25.4 °F 30.2 °F 100% 30.12 in 3.1 mi WNW 4.6 mph - N/A   Mist
1:00 AM 31 °F - 31 °F 99% 30.14 in 2 mi WNW 2.2 mph - -   Mist
1:25 AM 32.0 °F - 30.2 °F 93% 30.12 in 3.1 mi West 2.3 mph - N/A   Scattered Clouds
1:55 AM 30.2 °F 25.4 °F 28.4 °F 93% 30.12 in 3.1 mi SSW 4.6 mph - N/A   Mostly Cloudy
2:25 AM 32.0 °F - 30.2 °F 93% 30.12 in 3.7 mi Variable 1.2 mph - N/A   Overcast
2:55 AM 32.0 °F - 32.0 °F 100% 30.12 in 5.0 mi Variable 2.3 mph - N/A   Overcast
3:25 AM 33.8 °F 28.6 °F 32.0 °F 93% 30.09 in 5.6 mi West 5.8 mph - N/A   Overcast
3:55 AM 35.6 °F 30.7 °F 32.0 °F 87% 30.09 in 5.6 mi WNW 5.8 mph - N/A   Overcast
4:00 AM 36 °F - 33 °F 82% 30.10 in 4 mi WNW 8.9 mph - -   Mist
4:25 AM 35.6 °F 29.9 °F 32.0 °F 87% 30.09 in 6.2 mi NW 6.9 mph - N/A   Overcast
4:55 AM 35.6 °F 30.7 °F 32.0 °F 87% 30.06 in 6.2 mi WNW 5.8 mph - N/A   Overcast
5:25 AM 35.6 °F 31.7 °F 32.0 °F 87% 30.06 in 6.2 mi WNW 4.6 mph - N/A   Mostly Cloudy
5:55 AM 35.6 °F 30.7 °F 32.0 °F 87% 30.06 in 6.2 mi West 5.8 mph - N/A   Mostly Cloudy
6:25 AM 35.6 °F 31.7 °F 33.8 °F 93% 30.06 in 6.2 mi West 4.6 mph - N/A   Mostly Cloudy
6:55 AM 35.6 °F - 33.8 °F 93% 30.06 in 6.2 mi NW 2.3 mph - N/A   Mostly Cloudy
7:00 AM 36 °F - 33 °F 86% 30.07 in 4 mi NW 2.2 mph - -   Mist
7:25 AM 35.6 °F 32.8 °F 33.8 °F 93% 30.06 in 6.2 mi NW 3.5 mph - N/A   Mostly Cloudy
7:55 AM 35.6 °F 31.7 °F 33.8 °F 93% 30.06 in 5.6 mi WNW 4.6 mph - N/A   Mostly Cloudy
8:25 AM 37.4 °F - 33.8 °F 87% 30.06 in 5.6 mi West 1.2 mph - N/A   Mostly Cloudy
8:55 AM 37.4 °F 34.9 °F 35.6 °F 93% 30.06 in 5.6 mi West 3.5 mph - N/A   Mostly Cloudy
9:25 AM 39.2 °F 35.9 °F 37.4 °F 93% 30.06 in 4.3 mi West 4.6 mph - N/A   Mostly Cloudy
9:55 AM 39.2 °F 35.0 °F 37.4 °F 93% 30.06 in 5.0 mi WNW 5.8 mph - N/A   Mostly Cloudy
10:00 AM 40 °F - 37 °F 86% 30.08 in 3 mi WNW 6.7 mph - -   Mist
10:25 AM 41.0 °F 35.8 °F 37.4 °F 87% 30.06 in 4.3 mi NW 8.1 mph - N/A   Mostly Cloudy
10:55 AM 41.0 °F 35.2 °F 37.4 °F 87% 30.06 in 6.2 mi NW 9.2 mph - N/A   Scattered Clouds
11:25 AM 41.0 °F 35.2 °F 37.4 °F 87% 30.06 in 6.2 mi NW 9.2 mph - N/A   Scattered Clouds
11:55 AM 42.8 °F 37.5 °F 37.4 °F 81% 30.06 in 6.2 mi NW 9.2 mph - N/A   Mostly Cloudy
12:25 PM 42.8 °F 38.0 °F 37.4 °F 81% 30.06 in 6.2 mi NW 8.1 mph - N/A   Mostly Cloudy
1:00 PM 43 °F - 37 °F 74% 30.06 in 4 mi NW 8.9 mph - -   Mist
1:25 PM 42.8 °F 38.6 °F 37.4 °F 81% 30.04 in 5.6 mi NW 6.9 mph - N/A   Mostly Cloudy
1:55 PM 42.8 °F 38.0 °F 37.4 °F 81% 30.04 in 5.0 mi NW 8.1 mph - N/A   Mostly Cloudy
2:55 PM 42.8 °F 38.0 °F 37.4 °F 81% 30.04 in 4.3 mi NNW 8.1 mph - N/A Rain Light Rain
3:25 PM 42.8 °F 38.6 °F 37.4 °F 81% 30.04 in 4.3 mi North 6.9 mph - N/A Rain Light Rain
3:55 PM 41.0 °F 36.4 °F 37.4 °F 87% 30.04 in 3.7 mi NNW 6.9 mph - N/A Rain Light Rain
4:00 PM 42 °F - 38 °F 80% 30.04 in 3 mi North 6.7 mph - - Rain Light Rain
4:25 PM 41.0 °F 35.8 °F 37.4 °F 87% 30.04 in 3.1 mi North 8.1 mph - N/A Rain Light Rain
4:55 PM 41.0 °F 38.0 °F 39.2 °F 93% 30.04 in 3.1 mi North 4.6 mph - N/A Rain Light Rain
5:25 PM 41.0 °F 37.1 °F 37.4 °F 87% 30.04 in 3.1 mi NNE 5.8 mph - N/A Rain Light Rain
5:55 PM 41.0 °F 36.4 °F 37.4 °F 87% 30.04 in 3.7 mi NNE 6.9 mph - N/A   Mostly Cloudy
6:25 PM 41.0 °F 34.3 °F 39.2 °F 93% 30.04 in 3.7 mi NE 11.5 mph - N/A   Mostly Cloudy
6:55 PM 39.2 °F 31.6 °F 37.4 °F 93% 30.06 in 3.7 mi ENE 12.7 mph - N/A   Mostly Cloudy
7:00 PM 38 °F - 37 °F 97% 30.08 in 2 mi NE 13.4 mph - -   Mist
7:25 PM 39.2 °F 31.2 °F 37.4 °F 93% 30.06 in 5.0 mi ENE 13.8 mph - N/A   Mostly Cloudy
7:55 PM 37.4 °F 28.9 °F 33.8 °F 87% 30.09 in 6.2 mi ENE 13.8 mph - N/A   Mostly Cloudy
8:55 PM 37.4 °F 29.3 °F 32.0 °F 81% 30.09 in 6.2 mi ENE 12.7 mph - N/A   Mostly Cloudy
9:25 PM 37.4 °F 28.5 °F 30.2 °F 75% 30.12 in 6.2 mi ENE 15.0 mph - N/A   Mostly Cloudy
9:55 PM 37.4 °F 28.9 °F 30.2 °F 75% 30.12 in 6.2 mi East 13.8 mph - N/A   Mostly Cloudy
10:00 PM 37 °F - 31 °F 69% 30.15 in 28 mi East 13.4 mph - -   Overcast
10:25 PM 37.4 °F 29.3 °F 30.2 °F 75% 30.12 in 6.2 mi ENE 12.7 mph - N/A   Mostly Cloudy
10:55 PM 37.4 °F 29.8 °F 30.2 °F 75% 30.15 in 6.2 mi ENE 11.5 mph - N/A   Mostly Cloudy
11:25 PM 35.6 °F 27.5 °F 30.2 °F 81% 30.15 in 6.2 mi ENE 11.5 mph - N/A   Mostly Cloudy
11:55 PM 35.6 °F 26.6 °F 28.4 °F 75% 30.15 in 6.2 mi ENE 13.8 mph - N/A   Mostly Cloudy